Dassault Systemes SA Net Profit Margin 2010-2023 | DASTY

Current and historical net profit margin for Dassault Systemes SA (DASTY) from 2010 to 2023. Net profit margin can be defined as net Income as a portion of total sales revenue. Dassault Systemes SA net profit margin for the three months ending September 30, 2023 was .
Dassault Systemes SA Net Profit Margin Historical Data
Date TTM Revenue TTM Net Income Net Margin
2023-09-30 $4.47B $0.76B 16.88%
2023-03-31 $5.98B $1.06B 17.73%
2022-09-30 $5.81B $1.00B 17.19%
2022-03-31 $5.82B $1.00B 17.21%
2021-12-31 $5.75B $0.92B 15.91%
2021-09-30 $5.63B $0.88B 15.62%
2021-06-30 $5.47B $0.78B 14.17%
2021-03-31 $5.25B $0.65B 12.31%
2020-12-31 $5.09B $0.56B 11.01%
2020-09-30 $4.95B $0.53B 10.61%
2020-06-30 $4.76B $0.57B 12.00%
2020-03-31 $4.66B $0.63B 13.53%
2019-12-31 $4.50B $0.69B 15.33%
2019-09-30 $4.39B $0.72B 16.48%
2019-06-30 $4.33B $0.72B 16.62%
2019-03-31 $4.25B $0.73B 17.20%
2018-12-31 $4.11B $0.67B 16.36%
2018-09-30 $3.98B $0.67B 16.91%
2018-06-30 $3.90B $0.65B 16.60%
2018-03-31 $3.79B $0.62B 16.38%
2017-12-31 $3.65B $0.59B 16.09%
2017-09-30 $3.53B $0.51B 14.35%
2017-06-30 $3.46B $0.51B 14.64%
2017-03-31 $3.43B $0.49B 14.18%
2016-12-31 $3.38B $0.49B 14.61%
2016-09-30 $3.25B $0.47B 14.54%
2016-06-30 $3.18B $0.46B 14.56%
2016-03-31 $3.12B $0.46B 14.75%
2015-12-31 $3.15B $0.45B 14.17%
2015-09-30 $3.11B $0.43B 13.75%
2015-06-30 $3.07B $0.40B 13.08%
2015-03-31 $3.03B $0.38B 12.57%
2014-12-31 $2.93B $0.37B 12.60%
2014-09-30 $2.92B $0.40B 13.73%
2014-06-30 $2.89B $0.43B 14.99%
2014-03-31 $2.83B $0.45B 15.91%
2013-12-31 $2.77B $0.47B 17.06%
2013-09-30 $2.77B $0.46B 16.49%
2013-06-30 $2.73B $0.44B 16.09%
2013-03-31 $2.65B $0.44B 16.39%
2012-12-31 $2.63B $0.43B 16.51%
2012-09-30 $2.55B $0.42B 16.35%
2012-06-30 $2.50B $0.42B 16.61%
2012-03-31 $2.51B $0.41B 16.19%
2011-12-31 $2.46B $0.40B 16.17%
2011-09-30 $2.41B $0.39B 16.28%
2011-06-30 $2.33B $0.36B 15.35%
2011-03-31 $2.21B $0.33B 14.81%
2010-12-31 $2.07B $0.29B 14.06%
2010-09-30 $1.94B $0.30B 15.38%
2010-06-30 $1.85B $0.28B 15.37%
2010-03-31 $1.79B $0.26B 14.39%
2009-12-31 $1.78B $0.25B 13.76%
Sector Industry Market Cap Revenue
Computer and Technology Computer Software $55.184B $6.441B
Dassault Systemes is a worldwide recognized leader in CAD/CAM/CAE and PDM II markets. The company's mission to provide solutions to enable customersto build their digital enterprise, by defining, simulating, managing and optimizing concurrently product, manufacturing process, and resources. In this virtual space, customers create innovative, high quality, safe and affordable products. The company delivers scaleable process and design-centric solutions on both Unix and Windows NT environments.
Stock Name Country Market Cap PE Ratio
Microsoft (MSFT) United States $3161.257B 36.83
Oracle (ORCL) United States $342.243B 27.86
Salesforce (CRM) United States $277.884B 46.45
Adobe (ADBE) United States $217.141B 36.31
Intuit (INTU) United States $187.642B 62.92
Synopsys (SNPS) United States $87.593B 63.19
Cadence Design Systems (CDNS) United States $79.591B 75.77
Autodesk (ADSK) United States $47.706B 46.61
MicroStrategy (MSTR) United States $30.637B 0.00
ANSYS (ANSS) United States $28.686B 53.08
PTC (PTC) United States $22.025B 58.41
SS&C Technologies Holdings (SSNC) United States $15.695B 14.86
Manhattan Associates (MANH) United States $14.200B 75.37
Open Text (OTEX) Canada $8.494B 8.55
Descartes Systems Group (DSGX) Canada $8.478B 74.21
Trend Micro (TMICY) Japan $6.723B 48.69
Pegasystems (PEGA) United States $5.453B 48.22
CommVault Systems (CVLT) United States $4.798B 78.41
Blackbaud (BLKB) United States $4.109B 35.38
ACI Worldwide (ACIW) United States $3.962B 18.83
Progress Software (PRGS) United States $2.232B 14.19
Verint Systems (VRNT) United States $2.014B 18.77
Sapiens (SPNS) Israel $1.910B 26.04
BlackBerry (BB) Canada $1.776B 0.00
PROS Holdings (PRO) United States $1.524B 0.00
Simulations Plus (SLP) United States $1.000B 73.59
Rand Worldwide (RWWI) United States $0.652B 0.00
Magic Software Enterprises (MGIC) Israel $0.563B 11.94
American Software (AMSWA) United States $0.349B 29.22
Canaan (CAN) China $0.285B 0.00
OptimizeRx (OPRX) United States $0.239B 0.00
Rigetti Computing (RGTI) United States $0.180B 0.00
Icad Inc (ICAD) United States $0.044B 0.00
Neonode (NEON) Sweden $0.036B 0.00
NetSol Technologies (NTWK) United States $0.031B 0.00
Smith Micro Software (SMSI) United States $0.027B 0.00
Wetouch Technology (WETH) $0.024B 0.00
Hanryu Holdings (HRYU) South Korea $0.023B 0.00
GSE Systems (GVP) United States $0.011B 0.00
SAP SE (SAP) Germany $0.000B 49.95